| time (UTC) | temp F | wind direction | speed MPH | gust MPH | rain 1hr in | rain 24hr in | rain mn in | humidity % | barometer mb |
| 20260504205330 | 83 | 263 | 7.0 | 13.0 | 0.00 | 0.00 | 0.00 | 28 | 1001.5 |
| 20260504204317 | 84 | 246 | 7.0 | 13.0 | 0.00 | 0.00 | 0.00 | 27 | 1001.5 |
| 20260504203333 | 83 | 224 | 6.0 | 15.0 | 0.00 | 0.00 | 0.00 | 29 | 1001.7 |
| 20260504202320 | 83 | 245 | 4.0 | 13.0 | 0.00 | 0.00 | 0.00 | 32 | 1001.7 |
| 20260504201318 | 83 | 283 | 3.0 | 13.0 | 0.00 | 0.00 | 0.00 | 34 | 1001.7 |
| 20260504200335 | 83 | 220 | 3.0 | 8.0 | 0.00 | 0.00 | 0.00 | 32 | 1001.7 |
| 20260504195605 | 83 | 231 | 3.0 | 13.0 | 0.00 | 0.00 | 0.00 | 36 | 1001.8 |
| 20260504193335 | 83 | 11 | 2.0 | 11.0 | 0.00 | 0.00 | 0.00 | 36 | 1001.8 |
| 20260504192106 | 83 | 283 | 4.0 | 9.0 | 0.00 | 0.00 | 0.00 | 32 | 1001.9 |
| 20260504185337 | 82 | 337 | 4.0 | 12.0 | 0.00 | 0.00 | 0.00 | 39 | 1002.1 |
| 20260504184322 | 82 | 279 | 5.0 | 10.0 | 0.00 | 0.00 | 0.00 | 37 | 1002.1 |
| 20260504183320 | 81 | 284 | 3.0 | 11.0 | 0.00 | 0.00 | 0.00 | 42 | 1002.1 |
| 20260504182325 | 81 | 257 | 2.0 | 12.0 | 0.00 | 0.00 | 0.00 | 42 | 1002.2 |
| 20260504181332 | 82 | 266 | 4.0 | 9.0 | 0.00 | 0.00 | 0.00 | 43 | 1002.2 |
| 20260504180329 | 81 | 263 | 6.0 | 8.0 | 0.00 | 0.00 | 0.00 | 41 | 1002.2 |
| 20260504175335 | 81 | 245 | 3.0 | 7.0 | 0.00 | 0.00 | 0.00 | 41 | 1002.3 |
| 20260504174322 | 80 | 220 | 5.0 | 8.0 | 0.00 | 0.00 | 0.00 | 45 | 1002.3 |
| 20260504173319 | 80 | 239 | 3.0 | 8.0 | 0.00 | 0.00 | 0.00 | 45 | 1002.3 |
| 20260504172321 | 78 | 228 | 4.0 | 10.0 | 0.00 | 0.00 | 0.00 | 47 | 1002.5 |
| 20260504171328 | 78 | 255 | 4.0 | 10.0 | 0.00 | 0.00 | 0.00 | 45 | 1002.6 |
| 20260504170327 | 77 | 252 | 5.0 | 9.0 | 0.00 | 0.00 | 0.00 | 48 | 1002.8 |
| 20260504160347 | 75 | 229 | 6.0 | 10.0 | 0.00 | 0.00 | 0.00 | 51 | 1002.6 |
| 20260504150325 | 72 | 240 | 8.0 | 11.0 | 0.00 | 0.00 | 0.00 | 54 | 1002.7 |
| 20260504141324 | 68 | 201 | 6.0 | 11.0 | 0.00 | 0.00 | 0.00 | 61 | 1002.7 |
| 20260504140338 | 67 | 207 | 5.0 | 8.0 | 0.00 | 0.00 | 0.00 | 66 | 1002.8 |
| 20260504130319 | 63 | 222 | 0.0 | 1.0 | 0.00 | 0.00 | 0.00 | 78 | 1003.3 |
| 20260504110322 | 52 | 326 | 0.0 | 2.0 | 0.00 | 0.00 | 0.00 | 83 | 1002.8 |
| 20260504100341 | 51 | 42 | 2.0 | 2.0 | 0.00 | 0.00 | 0.00 | 83 | 1003.6 |
| 20260504081327 | 51 | 349 | 0.0 | 1.0 | 0.00 | 0.00 | 0.00 | 90 | 1005.5 |
| 20260504080324 | 51 | 348 | 0.0 | 0.0 | 0.00 | 0.00 | 0.00 | 89 | 1005.7 |
| 20260504070329 | 52 | 226 | 1.0 | 3.0 | 0.00 | 0.00 | 0.00 | 86 | 1007.2 |
| 20260504050402 | 53 | 291 | 0.0 | 1.0 | 0.00 | 0.00 | 0.00 | 85 | 1008.5 |
| 20260504045322 | 53 | 291 | 0.0 | 1.0 | 0.00 | 0.00 | 0.00 | 85 | 1008.6 |
| 20260504044327 | 53 | 291 | 0.0 | 0.0 | 0.00 | 0.00 | 0.00 | 83 | 1008.3 |
| 20260504043325 | 54 | 291 | 0.0 | 0.0 | 0.00 | 0.00 | 0.00 | 81 | 1008.2 |
| 20260504042353 | 55 | 291 | 0.0 | 2.0 | 0.00 | 0.00 | 0.00 | 80 | 1008.1 |
| 20260504041320 | 55 | 291 | 1.0 | 2.0 | 0.00 | 0.00 | 0.00 | 76 | 1008.2 |
| 20260504040341 | 55 | 212 | 0.0 | 2.0 | 0.00 | 0.00 | 0.00 | 82 | 1008.4 |
| 20260504035837 | 54 | 280 | 1.0 | 1.0 | 0.00 | 0.00 | 0.00 | 82 | 1008.3 |
| 20260504034325 | 54 | 280 | 0.0 | 0.0 | 0.00 | 0.00 | 0.00 | 82 | 1008.5 |
| 20260504033323 | 54 | 3 | 0.0 | 3.0 | 0.00 | 0.00 | 0.00 | 82 | 1008.6 |
| 20260504032331 | 55 | 316 | 2.0 | 3.0 | 0.00 | 0.00 | 0.00 | 81 | 1008.6 |
| 20260504031319 | 55 | 311 | 1.0 | 1.0 | 0.00 | 0.00 | 0.00 | 80 | 1008.7 |
| 20260504030318 | 56 | 310 | 1.0 | 2.0 | 0.00 | 0.00 | 0.00 | 79 | 1008.7 |
| 20260504025317 | 57 | 310 | 2.0 | 2.0 | 0.00 | 0.00 | 0.00 | 76 | 1008.8 |
| 20260504024324 | 58 | 295 | 1.0 | 2.0 | 0.00 | 0.00 | 0.00 | 74 | 1008.7 |
| 20260504023322 | 58 | 295 | 1.0 | 2.0 | 0.00 | 0.00 | 0.00 | 71 | 1008.6 |
| 20260504022348 | 58 | 294 | 1.0 | 1.0 | 0.00 | 0.00 | 0.00 | 73 | 1008.7 |
| 20260504021332 | 59 | 294 | 1.0 | 1.0 | 0.00 | 0.00 | 0.00 | 72 | 1008.6 |
| 20260504020330 | 60 | 294 | 1.0 | 1.0 | 0.00 | 0.00 | 0.00 | 66 | 1008.8 |
| 20260504015317 | 60 | 294 | 0.0 | 2.0 | 0.00 | 0.00 | 0.00 | 66 | 1008.9 |
| 20260504014324 | 60 | 293 | 1.0 | 1.0 | 0.00 | 0.00 | 0.00 | 69 | 1008.8 |
| 20260504013323 | 62 | 294 | 1.0 | 2.0 | 0.00 | 0.00 | 0.00 | 65 | 1008.9 |
| 20260504012331 | 64 | 293 | 0.0 | 0.0 | 0.00 | 0.00 | 0.00 | 57 | 1008.8 |
| 20260504011317 | 65 | 294 | 0.0 | 1.0 | 0.00 | 0.00 | 0.00 | 51 | 1008.9 |
| 20260504010317 | 67 | 293 | 0.0 | 1.0 | 0.00 | 0.00 | 0.00 | 46 | 1008.9 |
| 20260504005320 | 68 | 294 | 0.0 | 1.0 | 0.00 | 0.00 | 0.00 | 43 | 1008.9 |
| 20260504004323 | 70 | 294 | 0.0 | 0.0 | 0.00 | 0.00 | 0.00 | 41 | 1009.0 |
| 20260504003340 | 72 | 293 | 0.0 | 0.0 | 0.00 | 0.00 | 0.00 | 38 | 1009.0 |
| 20260504002321 | 74 | 294 | 0.0 | 2.0 | 0.00 | 0.00 | 0.00 | 36 | 1009.1 |
| 20260504001326 | 76 | 269 | 0.0 | 1.0 | 0.00 | 0.00 | 0.00 | 34 | 1009.2 |
| 20260504000323 | 77 | 288 | 0.0 | 2.0 | 0.00 | 0.00 | 0.00 | 34 | 1009.2 |
| 20260503235328 | 76 | 293 | 0.0 | 2.0 | 0.00 | 0.00 | 0.00 | 38 | 1009.2 |
| 20260503234326 | 76 | 286 | 0.0 | 0.0 | 0.00 | 0.00 | 0.00 | 38 | 1009.2 |
| 20260503233841 | 76 | 286 | 0.0 | 2.0 | 0.00 | 0.00 | 0.00 | 36 | 1009.4 |
| 20260503232331 | 76 | 259 | 0.0 | 2.0 | 0.00 | 0.00 | 0.00 | 34 | 1009.5 |
| 20260503231319 | 77 | 283 | 1.0 | 4.0 | 0.00 | 0.00 | 0.00 | 35 | 1009.6 |
| 20260503230316 | 77 | 257 | 1.0 | 3.0 | 0.00 | 0.00 | 0.00 | 35 | 1009.7 |
| 20260503225325 | 76 | 252 | 3.0 | 5.0 | 0.00 | 0.00 | 0.00 | 33 | 1009.8 |
| 20260503224353 | 76 | 243 | 3.0 | 7.0 | 0.00 | 0.00 | 0.00 | 32 | 1009.8 |
| 20260503223333 | 77 | 281 | 3.0 | 8.0 | 0.00 | 0.00 | 0.00 | 35 | 1009.8 |
| 20260503222320 | 76 | 252 | 1.0 | 5.0 | 0.00 | 0.00 | 0.00 | 33 | 1009.8 |
| 20260503221326 | 77 | 267 | 5.0 | 8.0 | 0.00 | 0.00 | 0.00 | 31 | 1009.8 |
| 20260503220344 | 78 | 29 | 1.0 | 4.0 | 0.00 | 0.00 | 0.00 | 36 | 1009.9 |
| 20260503215611 | 78 | 8 | 1.0 | 3.0 | 0.00 | 0.00 | 0.00 | 34 | 1009.9 |
| 20260503214323 | 77 | 281 | 1.0 | 5.0 | 0.00 | 0.00 | 0.00 | 39 | 1010.0 |
| 20260503213321 | 77 | 299 | 1.0 | 8.0 | 0.00 | 0.00 | 0.00 | 36 | 1010.1 |
| 20260503212612 | 76 | 260 | 5.0 | 9.0 | 0.00 | 0.00 | 0.00 | 35 | 1010.2 |
| 20260503211319 | 77 | 302 | 3.0 | 9.0 | 0.00 | 0.00 | 0.00 | 35 | 1010.2 |
| 20260503210316 | 76 | 276 | 4.0 | 7.0 | 0.00 | 0.00 | 0.00 | 37 | 1010.3 |